STARLINK-1200 (45181 NORAD) Tracking and Keplerian Element Data

This shows tracking and keplerian element data for the satellite.

Feedback or suggestion? Click here.




ElementValue
Catalog45181
NameSTARLINK-1200
Epoch Orbit767
Epoch Day94.25001157
Epoch Year2020
RAAN52.1431
Inclination52.9997
Eccentricity0.0001626
Argument of Perigee63.4327
Mean Anonmoly19.7953
Mean Motion15.05555886
Decay Rate0.00014903
L11 45181U 20012D 20094.25001157 .00014903 00000-0 10405-2 0 9999
L22 45181 52.9997 52.1431 0001626 63.4327 19.7953 15.05555886 7670

Live tracking and technical data element details for STARLINK-1200 (NORAD 45181). STARLINK-1200 can be tracked NOW for your location showing map with azimuth and elevation plus other details from your city location.

Track the satellite on the map from your city or location and see movement details for azimuth, elevation, latitude, longitude, range, height, and movement on the map or in text.







IsCatalogInMostPopularTable: catalog: 45181, numindb: 9
Update: records affected: 1



GetName: 45181 STARLINK-1200

Hit Count: updated at: Tue, 07 Apr 2020 17:40:49 GMT